Regional Weather Roundup
Issued by NWS

Home | Current Version | Previous Version | Text Only | Print | Product List | Glossary On
Versions: 1 2 3 4 5 6 7 8 9 10 11 12 13 14 15 16 17 18 19 20 21 22 23 24 25 26 27 28 29 30 31 32 33 34 35 36 37 38 39 40 41 42 43 44 45 46 47 48 49 50
000
ASUS43 KLSX 251310
RWRMO

WEATHER SUMMARY FOR MISSOURI
NATIONAL WEATHER SERVICE SPRINGFIELD MO
800 AM CDT TUE JUL 25 2017

NOTE: "FAIR" INDICATES FEW OR NO CLOUDS BELOW 12,000 FEET WITH NO
       SIGNIFICANT WEATHER AND/OR OBSTRUCTIONS TO VISIBILITY.
       CURRENT SKY AND/OR WEATHER CONDITIONS ARE NOT AVAILABLE FOR
       CHILLICOTHE AND FARMINGTON.

MOZ001>031-035>038-043-044-053-054-251400-
...NORTHERN AND WESTERN MISSOURI...

CITY           SKY/WX    TMP DP  RH WIND       PRES   REMARKS
KANSAS CTY INT MOSUNNY   76  67  73 SE10      30.07S
KANSAS C DTWN  SUNNY     77  67  71 SE5       30.07R
LEE`S SUMMIT   MOSUNNY   75  68  78 SE7       30.09R
ST JOSEPH      SUNNY     75  69  81 S10       30.06R
CHILLICOTHE      N/A     72  69  90 SE6       30.11R
KIRKSVILLE     SUNNY     70  66  87 SE8       30.13R

$$
MOZ066>068-077>081-088>096-101>105-251400-
...SOUTHWEST MISSOURI...

CITY           SKY/WX    TMP DP  RH WIND       PRES   REMARKS
SPRINGFIELD    SUNNY     76  71  85 S3        30.09S
JOPLIN         SUNNY     80  75  84 S6        30.09R
BRANSON        MOSUNNY   81  72  74 CALM      30.12R

$$
MOZ032>034-039>042-045>050-055>058-069>072-251400-
...CENTRAL MISSOURI...

CITY           SKY/WX    TMP DP  RH WIND       PRES   REMARKS
COLUMBIA       SUNNY     72  69  90 E9        30.10S
JEFFERSON CITY SUNNY     73  71  93 CALM      30.09R
ROLLA          SUNNY     72  69  90 E7        30.09S
SEDALIA        SUNNY     72  71  97 SE7       30.11R
WHITEMAN AFB   SUNNY     71  71 100 SE7       30.08R
WARRENSBURG    SUNNY     72  66  83 E5        30.08S
OSAGE BEACH    SUNNY     72  68  87 NE5       30.10S

$$
MOZ051-052-059>065-251400-
...EAST CENTRAL MISSOURI...

CITY           SKY/WX    TMP DP  RH WIND       PRES   REMARKS
ST LOUIS INTL  MOSUNNY   76  66  71 E9        30.11R
SPIRIT OF STL  MOSUNNY   75  68  78 E8        30.09R
ST CHARLES     SUNNY     74  68  81 E7        30.10R

$$
MOZ072>076-082>087-097>100-106>115-251400-
...SOUTH CENTRAL AND SOUTHEAST MISSOURI...

CITY           SKY/WX    TMP DP  RH WIND       PRES   REMARKS
CAPE GIRARDEAU LGT RAIN  76  72  87 E6        30.07R
FARMINGTON     CLOUDY    74  70  87 CALM      30.11R
POPLAR BLUFF   CLOUDY    78  78 100 SE6       30.06S FOG
WEST PLAINS    SUNNY     75  70  84 CALM      30.11R

$$




USA.gov is the U.S. government's official web portal to all federal, state and local government web resources and services.